Вернуться в каталог

STARLINK-31356

АктивенСвязьVLEO
NORAD 58968·PAYLOAD·🇺🇸 United States

Запущен Feb 15, 2024 с Vandenberg Space Force Base

Loading…

Ближайшие Пролёты (ближайшие 24 часа)

TLE

СвежийSource: CelesTrak SupGP

Эпоха: Sep 15, 2026, 02:02 UTC

1 58968C 24031D   26258.08520833  .00036996  00000+0  10925-2 0  2587
2 58968  53.1560 106.7128 0001178 106.5841 268.1448 15.34388544    14

Отслеживайте STARLINK-31356 в реальном времени с AllMySat

Download on the App Store